Flag for Philippines Weather past 2 weeks in Olongapo, Philippines

Now
86 °F

Partly sunny.


Feels Like: 95 °F
Forecast: 75 / 88 °F
Wind: 8 mph from Southwest

Location: Subic Bay Weather Station

Current Time: Oct 2, 2014 at 1:16:10 PM

Latest Report: Oct 2, 2014 at 12:00 PM


Visibility: N/A

Pressure: 29.71 "Hg

Humidity: 70%

Dew point: 75 °F

Location of OlongapoLocation

Historic Weather in Olongapo — Graph

°F

Olongapo temperature yesterday

Maximum temperature yesterday: 88 °F (at 9:00 AM)
Minimum temperature yesterday: 77 °F (at 6:00 AM)
Average temperature yesterday: 82 °F

Past Weeks' High & Low Weather Summary

 TemperatureHumidityPressure
High133 °F (Sep 25, 4:00 AM)100% (Sep 27, 1:00 PM)29.89 "Hg (Sep 27, 1:00 PM)
Low75 °F (Sep 18, 3:00 AM)16% (Sep 25, 4:00 AM)29.50 "Hg (Sep 19, 3:00 AM)
Average83 °F79%29.77 "Hg
* Reported Sep 17 12:00 Noon — Oct 2 12:00 Noon, Olongapo, Weather by CustomWeather, © 2014

Note: Actual official high and low records may vary slightly from our data, if they occured in-between our weather recording intervals... More about our weather records

Advertising

Olongapo weather history for previous 24 hours

 ConditionsComfort  
Time TempWeatherWind HumidityBarometerVisibility
12:00 PM
Oct 2
86 °FPartly sunny.8 mph70%29.71 "HgN/A
11:00 AM86 °FPartly sunny.6 mph70%29.74 "HgN/A
10:00 AM86 °FPartly sunny.5 mph70%29.77 "HgN/A
9:00 AM84 °FPartly sunny.3 mph74%29.77 "HgN/A
8:00 AM82 °FPartly sunny.No wind74%29.77 "HgN/A
7:00 AM77 °FPartly sunny.No wind94%29.74 "HgN/A
6:00 AM75 °FPartly sunny.No wind94%29.74 "HgN/A
5:00 AM75 °FPassing clouds.No wind89%29.71 "HgN/A
2:00 AM75 °FPassing clouds.No wind94%29.74 "HgN/A
11:00 PM
Oct 1
77 °FOvercast.7 mph89%29.80 "HgN/A
10:00 PM77 °FSprinkles. Overcast.13 mph89%29.80 "HgN/A
9:00 PM77 °FSprinkles. Passing clouds.13 mph89%29.80 "HgN/A
8:00 PM81 °FThunderstorms. Passing clouds.7 mph79%29.77 "HgN/A
7:00 PM82 °FPassing clouds.No wind79%29.74 "HgN/A
6:00 PM84 °FPartly cloudy.3 mph74%29.71 "HgN/A
5:00 PM84 °FPartly sunny.2 mph74%29.71 "HgN/A
4:00 PM84 °FPartly sunny.6 mph74%29.71 "HgN/A
3:00 PM84 °FPartly sunny.2 mph79%29.71 "HgN/A
2:00 PM82 °FThunderstorms. Scattered clouds.9 mph84%29.71 "HgN/A
1:00 PM88 °FThunderstorms. Partly sunny.12 mph70%29.71 "HgN/A
Weather by CustomWeather, © 2014

See weather overviewHow to use our weather pages